GW3329 Weather Reports


time (UTC)temp
C
wind
direction
speed
KPH
gust
KPH
rain 1hr
cm
rain 24hr
cm
rain mn
cm
humidity
%
barometer
mb
20260831225604 27 135 0.0 9.7 0.00 0.00 0.00 61 1016.4
20260831225104 27 159 1.6 3.2 0.00 0.00 0.00 59 1016.6
20260831224600 27 89 3.2 3.2 0.00 0.00 0.00 61 1016.8
20260831224055 27 62 3.2 4.8 0.00 0.00 0.00 61 1016.6
20260831223551 27 149 6.4 6.4 0.00 0.00 0.00 60 1016.7
20260831223047 27 283 1.6 6.4 0.00 0.00 0.00 61 1016.7
20260831222543 27 28 4.8 11.3 0.00 0.00 0.00 61 1016.7
20260831222042 27 38 3.2 4.8 0.00 0.00 0.00 60 1016.7
20260831221538 27 219 6.4 11.3 0.00 0.00 0.00 61 1016.9
20260831221033 28 344 4.8 9.7 0.00 0.00 0.00 59 1017.0
20260831220528 28 165 0.0 12.9 0.00 0.00 0.00 60 1016.8
20260831220024 27 269 1.6 4.8 0.00 0.00 0.00 61 1017.2
20260831215519 27 96 1.6 16.1 0.00 0.00 0.00 62 1017.1
20260831215015 27 163 4.8 9.7 0.00 0.00 0.00 60 1017.0
20260831214513 27 267 8.0 12.9 0.00 0.00 0.00 60 1017.1
20260831214008 27 109 1.6 4.8 0.00 0.00 0.00 61 1017.2
20260831213504 28 210 3.2 9.7 0.00 0.00 0.00 61 1017.2
20260831213004 28 272 8.0 11.3 0.00 0.00 0.00 60 1017.3
20260831212500 27 130 1.6 6.4 0.00 0.00 0.00 62 1017.3
20260831211955 27 84 1.6 3.2 0.00 0.00 0.00 63 1017.2
20260831211450 28 69 1.6 9.7 0.00 0.00 0.00 62 1017.2
20260831210949 28 234 6.4 9.7 0.00 0.00 0.00 61 1017.3
20260831210444 28 227 6.4 9.7 0.00 0.00 0.00 61 1017.1
20260831205940 27 278 9.7 11.3 0.00 0.00 0.00 61 1017.6
20260831205435 27 166 4.8 11.3 0.00 0.00 0.00 61 1017.2
20260831204930 27 180 3.2 6.4 0.00 0.00 0.00 61 1017.5
20260831204430 27 161 1.6 9.7 0.00 0.00 0.00 62 1017.2
20260831203923 27 318 3.2 4.8 0.00 0.00 0.00 63 1017.3
20260831203418 27 292 8.0 12.9 0.00 0.00 0.00 62 1017.7
20260831202916 27 95 3.2 6.4 0.00 0.00 0.00 62 1017.3
20260831202411 27 50 3.2 4.8 0.00 0.00 0.00 63 1017.4
20260831201906 27 31 1.6 6.4 0.00 0.00 0.00 63 1017.5
20260831201404 27 205 6.4 9.7 0.00 0.00 0.00 62 1017.3
20260831200901 27 181 3.2 4.8 0.00 0.00 0.00 63 1017.4
20260831200355 27 281 6.4 9.7 0.00 0.00 0.00 62 1017.6
20260831195849 27 203 1.6 4.8 0.00 0.00 0.00 63 1017.6
20260831195345 27 38 4.8 9.7 0.00 0.00 0.00 63 1017.5
20260831194841 27 197 3.2 6.4 0.00 0.00 0.00 64 1017.5
20260831194336 27 44 1.6 6.4 0.00 0.00 0.00 64 1017.8
20260831193835 27 208 3.2 6.4 0.00 0.00 0.00 63 1017.6
20260831193330 27 324 3.2 4.8 0.00 0.00 0.00 63 1017.7
20260831192826 27 265 8.0 14.5 0.00 0.00 0.00 63 1017.8
20260831192320 27 337 6.4 11.3 0.00 0.00 0.00 63 1017.8
20260831191816 27 260 3.2 6.4 0.00 0.00 0.00 63 1018.1
20260831191312 27 69 3.2 6.4 0.00 0.00 0.00 62 1017.9
20260831190808 27 261 8.0 12.9 0.00 0.00 0.00 62 1017.8
20260831190308 27 144 1.6 6.4 0.00 0.00 0.00 61 1018.0
20260831185807 27 256 6.4 12.9 0.00 0.00 0.00 61 1017.9
20260831185306 27 160 3.2 4.8 0.00 0.00 0.00 61 1018.0
20260831184802 27 146 3.2 6.4 0.00 0.00 0.00 60 1017.8
20260831184258 27 291 3.2 6.4 0.00 0.00 0.00 59 1018.0
20260831183753 27 82 1.6 3.2 0.00 0.00 0.00 60 1017.9
20260831183252 27 283 3.2 4.8 0.00 0.00 0.00 59 1018.1
20260831182751 27 223 3.2 3.2 0.00 0.00 0.00 59 1018.0
20260831182246 27 240 1.6 4.8 0.00 0.00 0.00 60 1017.8
20260831181742 27 240 6.4 9.7 0.00 0.00 0.00 60 1017.6
20260831181237 27 297 9.7 12.9 0.00 0.00 0.00 60 1017.8
20260831180737 26 230 6.4 12.9 0.00 0.00 0.00 60 1018.0
20260831180232 27 203 6.4 11.3 0.00 0.00 0.00 59 1017.9
20260831175731 27 282 3.2 6.4 0.00 0.00 0.00 59 1017.6
20260831175228 27 271 3.2 4.8 0.00 0.00 0.00 60 1017.7
20260831174722 27 142 1.6 4.8 0.00 0.00 0.00 59 1017.7
20260831174218 27 305 3.2 6.4 0.00 0.00 0.00 60 1017.8
20260831173717 27 0 1.6 1.6 0.00 0.00 0.00 61 1017.8
20260831173207 27 295 3.2 4.8 0.00 0.00 0.00 61 1017.8
20260831172706 27 219 3.2 6.4 0.00 0.00 0.00 61 1017.8
20260831172202 26 15 3.2 3.2 0.00 0.00 0.00 63 1017.8
20260831171656 26 180 3.2 4.8 0.00 0.00 0.00 64 1017.7
20260831171154 26 147 1.6 6.4 0.00 0.00 0.00 63 1017.7
20260831170650 26 271 4.8 6.4 0.00 0.00 0.00 64 1017.7
20260831170147 25 223 1.6 9.7 0.00 0.00 0.00 65 1017.7
20260831165642 25 191 1.6 4.8 0.00 0.00 0.00 65 1017.7
20260831165138 25 259 3.2 4.8 0.00 0.00 0.00 67 1017.5
20260831164634 25 241 1.6 3.2 0.00 0.00 0.00 67 1017.7
20260831164130 25 263 6.4 9.7 0.00 0.00 0.00 67 1017.6
20260831163625 25 43 1.6 1.6 0.00 0.00 0.00 69 1017.5
20260831163121 25 39 1.6 4.8 0.00 0.00 0.00 69 1017.5
20260831162620 24 225 3.2 4.8 0.00 0.00 0.00 69 1017.3
20260831162117 23 114 0.0 1.6 0.00 0.00 0.00 73 1017.4
20260831161614 23 226 3.2 6.4 0.00 0.00 0.00 71 1017.6
20260831161110 23 304 1.6 3.2 0.00 0.00 0.00 73 1017.5
20260831160609 23 134 0.0 1.6 0.00 0.00 0.00 73 1017.5
20260831160105 23 117 0.0 1.6 0.00 0.00 0.00 74 1017.6
20260831155559 23 143 1.6 1.6 0.00 0.00 0.00 75 1017.5
20260831155054 22 135 0.0 1.6 0.00 0.00 0.00 76 1017.4
20260831154550 22 81 1.6 4.8 0.00 0.00 0.00 76 1017.4
20260831154050 22 143 0.0 1.6 0.00 0.00 0.00 77 1017.5
20260831153544 22 129 0.0 1.6 0.00 0.00 0.00 77 1017.3
20260831153041 22 18 0.0 0.0 0.00 0.00 0.00 77 1017.4
20260831152536 21 147 0.0 0.0 0.00 0.00 0.00 79 1017.3
20260831152032 21 153 1.6 3.2 0.00 0.00 0.00 81 1017.3
20260831151531 21 141 0.0 0.0 0.00 0.00 0.00 80 1017.2
20260831151031 21 141 0.0 0.0 0.00 0.00 0.00 82 1017.2
20260831150520 20 141 0.0 0.0 0.00 0.00 0.00 83 1017.2
20260831150017 20 139 0.0 0.0 0.00 0.00 0.00 84 1017.2
20260831145511 20 140 0.0 0.0 0.00 0.00 0.00 85 1017.1
20260831145007 19 140 0.0 0.0 0.00 0.00 0.00 87 1017.4
20260831144503 19 136 0.0 0.0 0.00 0.00 0.00 89 1017.0
20260831143957 18 133 0.0 0.0 0.00 0.00 0.00 93 1017.2
20260831143446 18 131 0.0 0.0 0.00 0.00 0.00 97 1017.1
20260831142942 17 128 0.0 0.0 0.00 0.00 0.00 99 1017.0
20260831142438 17 132 0.0 0.0 0.00 0.00 0.00 99 1016.9
20260831141932 16 147 0.0 0.0 0.00 0.00 0.00 99 1017.0
20260831141426 16 145 0.0 0.0 0.00 0.00 0.00 99 1016.8
20260831140921 16 145 0.0 0.0 0.00 0.00 0.00 99 1016.8
20260831140416 15 151 0.0 0.0 0.00 0.00 0.00 99 1016.8
20260831135915 15 153 0.0 0.0 0.00 0.00 0.00 99 1016.5
20260831135414 15 154 0.0 0.0 0.00 0.00 0.00 99 1016.6
20260831134909 15 155 0.0 0.0 0.00 0.00 0.00 99 1016.5
20260831134401 15 154 0.0 0.0 0.00 0.00 0.00 99 1016.5
20260831133859 15 154 0.0 0.0 0.00 0.00 0.00 99 1016.4
20260831133354 14 154 0.0 0.0 0.00 0.00 0.00 99 1016.2
20260831132849 15 155 0.0 0.0 0.00 0.00 0.00 99 1016.5
20260831132339 15 162 0.0 0.0 0.00 0.00 0.00 99 1016.4
20260831131838 15 160 0.0 0.0 0.00 0.00 0.00 99 1016.4
20260831131334 15 160 0.0 0.0 0.00 0.00 0.00 99 1016.4
20260831130829 15 160 0.0 0.0 0.00 0.00 0.00 99 1016.5
20260831130325 15 168 0.0 0.0 0.00 0.00 0.00 99 1016.4
20260831125824 14 166 0.0 0.0 0.00 0.00 0.00 98 1016.5
20260831125320 14 157 0.0 0.0 0.00 0.00 0.00 98 1016.5
20260831124819 15 148 0.0 0.0 0.00 0.00 0.00 98 1016.3
20260831124316 15 148 0.0 0.0 0.00 0.00 0.00 98 1016.4
20260831123815 15 148 0.0 0.0 0.00 0.00 0.00 98 1016.4
20260831123314 15 147 0.0 0.0 0.00 0.00 0.00 98 1016.5
20260831122809 15 155 0.0 0.0 0.00 0.00 0.00 98 1016.5
20260831122306 15 164 0.0 0.0 0.00 0.00 0.00 98 1016.3
20260831121759 15 156 0.0 0.0 0.00 0.00 0.00 98 1016.4
20260831121255 15 160 0.0 0.0 0.00 0.00 0.00 98 1016.4
20260831120750 15 160 0.0 0.0 0.00 0.00 0.00 98 1016.3
20260831120245 15 161 0.0 0.0 0.00 0.00 0.00 98 1016.3
20260831115740 15 169 0.0 0.0 0.00 0.00 0.00 98 1016.1
20260831115236 15 165 0.0 0.0 0.00 0.00 0.00 98 1016.1
20260831114735 15 189 0.0 0.0 0.00 0.00 0.00 97 1016.1
20260831114235 15 173 0.0 0.0 0.00 0.00 0.00 97 1016.1
20260831113730 15 181 0.0 0.0 0.00 0.00 0.00 97 1016.5
20260831113224 15 162 0.0 0.0 0.00 0.00 0.00 97 1016.1
20260831112718 15 161 0.0 0.0 0.00 0.00 0.00 97 1016.4
20260831112214 15 153 0.0 0.0 0.00 0.00 0.00 97 1016.4
20260831111709 15 160 0.0 0.0 0.00 0.00 0.00 97 1016.3
20260831111206 15 158 0.0 0.0 0.00 0.00 0.00 97 1016.4
20260831110701 15 159 0.0 0.0 0.00 0.00 0.00 97 1016.4
20260831110156 15 158 0.0 0.0 0.00 0.00 0.00 96 1016.1
20260831105655 15 158 0.0 0.0 0.00 0.00 0.00 96 1016.5
20260831105151 16 158 0.0 0.0 0.00 0.00 0.00 96 1016.3
20260831104645 16 159 0.0 0.0 0.00 0.00 0.00 96 1016.4
20260831104142 16 166 0.0 0.0 0.00 0.00 0.00 96 1016.6
20260831103637 16 156 0.0 0.0 0.00 0.00 0.00 95 1016.4
20260831103133 16 156 0.0 0.0 0.00 0.00 0.00 95 1016.5
20260831102632 16 158 0.0 0.0 0.00 0.00 0.00 95 1016.5
20260831102132 16 138 0.0 0.0 0.00 0.00 0.00 95 1016.5
20260831101633 16 149 0.0 0.0 0.00 0.00 0.00 95 1016.4
20260831101128 16 175 0.0 0.0 0.00 0.00 0.00 95 1016.3
20260831100624 16 177 0.0 0.0 0.00 0.00 0.00 95 1016.1
20260831100120 16 218 0.0 0.0 0.00 0.00 0.00 95 1016.5
20260831095618 16 185 0.0 0.0 0.00 0.00 0.00 95 1016.2
20260831095113 16 179 0.0 0.0 0.00 0.00 0.00 95 1016.4
20260831094609 16 175 0.0 0.0 0.00 0.00 0.00 95 1016.3
20260831094105 16 159 0.0 0.0 0.00 0.00 0.00 94 1015.9
20260831093600 16 160 0.0 0.0 0.00 0.00 0.00 94 1016.1
20260831093056 16 171 0.0 0.0 0.00 0.00 0.00 94 1016.3
20260831092552 16 164 0.0 0.0 0.00 0.00 0.00 94 1016.1
20260831092048 16 179 0.0 0.0 0.00 0.00 0.00 94 1016.2
20260831091548 16 162 0.0 0.0 0.00 0.00 0.00 93 1016.1
20260831091043 16 179 0.0 0.0 0.00 0.00 0.00 93 1016.1
20260831090538 16 162 0.0 0.0 0.00 0.00 0.00 92 1016.1
20260831090029 17 177 0.0 0.0 0.00 0.00 0.00 92 1016.1
20260831085524 17 166 0.0 0.0 0.00 0.00 0.00 93 1016.0
20260831085019 17 173 0.0 0.0 0.00 0.00 0.00 93 1016.1
20260831084515 17 157 0.0 0.0 0.00 0.00 0.00 93 1016.0
20260831084011 17 163 0.0 0.0 0.00 0.00 0.00 93 1016.3
20260831083511 17 163 0.0 0.0 0.00 0.00 0.00 92 1016.3
20260831083006 17 166 0.0 0.0 0.00 0.00 0.00 92 1016.4
20260831082500 17 172 0.0 0.0 0.00 0.00 0.00 92 1016.4
20260831081954 17 161 0.0 0.0 0.00 0.00 0.00 92 1016.2
20260831081450 17 162 0.0 0.0 0.00 0.00 0.00 92 1016.2
20260831080946 17 166 0.0 0.0 0.00 0.00 0.00 92 1016.2
20260831080441 17 168 0.0 0.0 0.00 0.00 0.00 92 1016.4
20260831075936 17 172 0.0 0.0 0.00 0.00 0.00 91 1016.1
20260831075431 17 161 0.0 0.0 0.00 0.00 0.00 91 1016.3
20260831074927 17 168 0.0 0.0 0.00 0.00 0.00 90 1016.1
20260831074421 17 156 0.0 0.0 0.00 0.00 0.00 90 1016.2
20260831073915 17 168 0.0 0.0 0.00 0.00 0.00 91 1015.9
20260831073415 17 165 0.0 1.6 0.00 0.00 0.00 90 1016.1
20260831072910 17 153 0.0 3.2 0.00 0.00 0.00 90 1015.9
20260831072405 17 308 3.2 4.8 0.00 0.00 0.00 90 1016.0
20260831071902 18 262 3.2 4.8 0.00 0.00 0.00 89 1016.1
20260831071400 18 220 1.6 3.2 0.00 0.00 0.00 88 1016.0
20260831070855 18 146 0.0 0.0 0.00 0.00 0.00 86 1016.1
20260831070354 18 167 0.0 1.6 0.00 0.00 0.00 86 1016.0
20260831065854 18 151 0.0 0.0 0.00 0.00 0.00 85 1016.1
20260831065351 18 151 0.0 0.0 0.00 0.00 0.00 85 1015.9
20260831064847 18 182 0.0 1.6 0.00 0.00 0.00 84 1016.0
20260831064342 19 259 3.2 3.2 0.00 0.00 0.00 84 1016.1
20260831063837 19 171 0.0 1.6 0.00 0.00 0.00 84 1015.8
20260831063332 19 274 3.2 3.2 0.00 0.00 0.00 83 1016.1
20260831062827 19 188 0.0 0.0 0.00 0.00 0.00 84 1016.0
20260831062322 18 151 0.0 0.0 0.00 0.00 0.00 85 1015.9
20260831061820 18 147 0.0 0.0 0.00 0.00 0.00 85 1015.8
20260831061314 18 148 0.0 0.0 0.00 0.00 0.00 85 1016.2
20260831060810 18 148 0.0 0.0 0.00 0.00 0.00 85 1016.1
20260831060305 18 131 0.0 0.0 0.00 0.00 0.00 85 1015.9
20260831055804 18 142 0.0 0.0 0.00 0.00 0.00 84 1015.8
20260831055259 18 158 0.0 0.0 0.00 0.00 0.00 85 1016.0
20260831054754 18 157 0.0 0.0 0.00 0.00 0.00 85 1016.0
20260831054249 18 158 0.0 0.0 0.00 0.00 0.00 85 1016.2
20260831053748 18 159 0.0 0.0 0.00 0.00 0.00 85 1016.1
20260831053247 18 163 0.0 0.0 0.00 0.00 0.00 85 1016.1
20260831052742 18 155 0.0 0.0 0.00 0.00 0.00 85 1016.0
20260831052241 18 155 0.0 0.0 0.00 0.00 0.00 84 1016.1
20260831051738 18 156 0.0 0.0 0.00 0.00 0.00 85 1016.4
20260831051232 18 162 0.0 0.0 0.00 0.00 0.00 85 1016.2
20260831050727 18 157 0.0 0.0 0.00 0.00 0.00 84 1016.5
20260831050225 18 157 0.0 0.0 0.00 0.00 0.00 83 1016.2
20260831045720 18 160 0.0 0.0 0.00 0.00 0.00 83 1016.4
20260831045215 19 166 0.0 0.0 0.00 0.00 0.00 82 1016.2
20260831044710 19 153 0.0 0.0 0.00 0.00 0.00 82 1016.0
20260831044205 19 159 0.0 0.0 0.00 0.00 0.00 82 1016.2
20260831043701 19 153 0.0 0.0 0.00 0.00 0.00 82 1016.1
20260831043156 19 153 0.0 0.0 0.00 0.00 0.00 81 1016.1
20260831042655 19 164 0.0 0.0 0.00 0.00 0.00 81 1016.1
20260831042150 19 191 0.0 0.0 0.00 0.00 0.00 81 1016.1
20260831041645 19 159 0.0 0.0 0.00 0.00 0.00 80 1016.0
20260831041144 19 155 0.0 0.0 0.00 0.00 0.00 80 1016.1
20260831040640 19 155 0.0 0.0 0.00 0.00 0.00 80 1016.1
20260831040138 20 157 0.0 0.0 0.00 0.00 0.00 79 1016.0
20260831035638 20 171 0.0 0.0 0.00 0.00 0.00 78 1015.9
20260831035137 20 167 0.0 0.0 0.00 0.00 0.00 78 1015.9
20260831034636 20 177 0.0 0.0 0.00 0.00 0.00 78 1015.8
20260831034132 20 153 0.0 0.0 0.00 0.00 0.00 77 1015.6
20260831033628 20 150 0.0 0.0 0.00 0.00 0.00 77 1015.7
20260831033123 20 147 0.0 0.0 0.00 0.00 0.00 76 1015.5
20260831032623 20 162 0.0 0.0 0.00 0.00 0.00 75 1015.5
20260831032118 20 163 0.0 0.0 0.00 0.00 0.00 75 1015.2
20260831031613 21 166 0.0 0.0 0.00 0.00 0.00 75 1015.5
20260831031112 21 156 0.0 0.0 0.00 0.00 0.00 74 1015.0
20260831030611 21 174 0.0 0.0 0.00 0.00 0.00 73 1015.3
20260831030110 21 164 0.0 0.0 0.00 0.00 0.00 72 1015.0
20260831025609 21 157 0.0 0.0 0.00 0.00 0.00 71 1014.9
20260831025104 21 148 0.0 0.0 0.00 0.00 0.00 71 1015.0
20260831024600 21 144 0.0 0.0 0.00 0.00 0.00 70 1015.0
20260831024058 22 152 0.0 3.2 0.00 0.00 0.00 70 1014.9
20260831023557 22 128 0.0 0.0 0.00 0.00 0.00 70 1014.8
20260831023056 22 141 0.0 0.0 0.00 0.00 0.00 69 1014.8
20260831022551 22 134 0.0 0.0 0.00 0.00 0.00 68 1014.9
20260831022046 22 134 0.0 1.6 0.00 0.00 0.00 68 1015.0
20260831021544 22 100 0.0 1.6 0.00 0.00 0.00 68 1014.7
20260831021036 23 151 1.6 3.2 0.00 0.00 0.00 67 1014.7
20260831020531 23 164 0.0 1.6 0.00 0.00 0.00 67 1015.1
20260831020025 23 135 0.0 3.2 0.00 0.00 0.00 67 1015.1
20260831015521 23 148 0.0 1.6 0.00 0.00 0.00 66 1014.9
20260831015016 23 105 1.6 3.2 0.00 0.00 0.00 66 1015.0
20260831014510 23 267 0.0 1.6 0.00 0.00 0.00 65 1014.8
20260831014006 24 143 0.0 0.0 0.00 0.00 0.00 65 1014.9
20260831013502 24 83 1.6 3.2 0.00 0.00 0.00 65 1014.9
20260831012955 25 262 0.0 1.6 0.00 0.00 0.00 64 1014.9
20260831012450 25 135 1.6 1.6 0.00 0.00 0.00 63 1015.1
20260831011944 25 161 0.0 0.0 0.00 0.00 0.00 62 1015.0
20260831011439 25 131 1.6 3.2 0.00 0.00 0.00 62 1015.0
20260831010936 25 156 1.6 3.2 0.00 0.00 0.00 62 1014.9
20260831010435 26 173 1.6 4.8 0.00 0.00 0.00 61 1015.1
20260831005931 26 155 1.6 3.2 0.00 0.00 0.00 62 1015.0
20260831005426 26 158 0.0 4.8 0.00 0.00 0.00 62 1015.1
20260831004926 26 275 6.4 6.4 0.00 0.00 0.00 62 1015.1
20260831004423 26 183 3.2 4.8 0.00 0.00 0.00 62 1014.8
20260831003918 26 342 6.4 6.4 0.00 0.00 0.00 63 1014.8
20260831003413 26 115 1.6 4.8 0.00 0.00 0.00 64 1014.8
20260831002908 26 115 0.0 3.2 0.00 0.00 0.00 64 1015.0
20260831002407 27 197 3.2 6.4 0.00 0.00 0.00 62 1014.8
20260831001902 27 292 0.0 11.3 0.00 0.00 0.00 61 1014.8
20260831001357 27 274 4.8 6.4 0.00 0.00 0.00 60 1014.8
20260831000855 27 168 3.2 9.7 0.00 0.00 0.00 60 1014.7
20260831000350 27 259 3.2 11.3 0.00 0.00 0.00 60 1014.6
20260830235848 27 48 1.6 3.2 0.00 0.00 0.00 60 1014.6
20260830235343 28 201 1.6 4.8 0.00 0.00 0.00 60 1014.9
20260830234839 28 32 1.6 3.2 0.00 0.00 0.00 59 1014.8
20260830234334 28 207 4.8 9.7 0.00 0.00 0.00 59 1014.9
20260830233830 28 128 3.2 6.4 0.00 0.00 0.00 59 1014.6
20260830233325 29 227 1.6 4.8 0.00 0.00 0.00 57 1014.5
20260830232821 29 327 1.6 4.8 0.00 0.00 0.00 57 1015.0
20260830232316 30 63 1.6 3.2 0.00 0.00 0.00 56 1014.7
20260830231812 30 147 1.6 4.8 0.00 0.00 0.00 57 1015.0
20260830231307 30 19 1.6 6.4 0.00 0.00 0.00 57 1014.8
20260830230801 30 149 0.0 3.2 0.00 0.00 0.00 57 1014.8
20260830230257 30 62 3.2 4.8 0.00 0.00 0.00 56 1014.7
20260830225756 30 352 3.2 4.8 0.00 0.00 0.00 56 1014.7